Flag for U.S.A. Weather past 2 weeks in Pasadena, Texas, U.S.A.

Now
82 °F

Broken clouds.


Feels Like: 87 °F
Forecast: 77 / 88 °F
Wind: 10 mph from Southeast

Location: Houston / Ellington

Current Time: Aug 30, 2014 at 4:25:30 PM

Latest Report: Aug 30, 2014 at 3:50 PM


Visibility: 10 mi

Pressure: 29.92 "Hg

Humidity: 70%

Dew point: 72 °F

Location of PasadenaLocation

Historic Weather in Pasadena — Graph

°F

Pasadena temperature yesterday

Maximum temperature yesterday: 86 °F (at 11:50 AM)
Minimum temperature yesterday: 77 °F (at 5:50 PM)
Average temperature yesterday: 81 °F

Past Weeks' High & Low Weather Summary

 TemperatureHumidityPressure
High97 °F (Aug 16, 1:50 PM)100% (Aug 29, 8:50 PM)30.11 "Hg (Aug 29, 8:50 PM)
Low75 °F (Aug 28, 8:50 AM)44% (Aug 16, 1:50 PM)29.85 "Hg (Aug 29, 4:50 PM)
Average84 °F77%29.97 "Hg
* Reported Aug 15 2:50 PM — Aug 30 2:50 PM, Pasadena, Weather by CustomWeather, © 2014

Note: Actual official high and low records may vary slightly from our data, if they occured in-between our weather recording intervals... More about our weather records

Advertising

Pasadena weather history for previous 24 hours

 ConditionsComfort  
Time TempWeatherWind HumidityBarometerVisibility
2:50 PM
Aug 30
86 °FThunderstorms. Partly sunny.6 mph66%29.95 "Hg10 mi
1:50 PM88 °FPartly sunny.3 mph62%29.96 "Hg10 mi
12:50 PM88 °FPartly sunny.No wind66%29.96 "Hg10 mi
11:50 AM86 °FPartly sunny.3 mph66%29.97 "Hg10 mi
10:50 AM84 °FPartly sunny.6 mph74%29.96 "Hg10 mi
8:50 AM79 °FPartly sunny.No wind89%29.94 "Hg10 mi
7:50 AM77 °FPassing clouds.3 mph89%29.92 "Hg10 mi
6:50 AM77 °FPassing clouds.5 mph89%29.92 "Hg10 mi
5:50 AM77 °FPartly cloudy.3 mph89%29.89 "Hg10 mi
4:50 AM77 °FPassing clouds.No wind89%29.90 "Hg10 mi
3:50 AM77 °FPassing clouds.No wind89%29.89 "Hg10 mi
2:50 AM77 °FPartly cloudy.No wind89%29.90 "Hg10 mi
1:50 AM79 °FPartly cloudy.3 mph84%29.90 "Hg10 mi
12:50 AM77 °FPassing clouds.No wind89%29.91 "Hg10 mi
11:50 PM
Aug 29
77 °FPartly cloudy.7 mph94%29.92 "Hg10 mi
10:50 PM77 °FPassing clouds.5 mph94%29.93 "Hg10 mi
8:50 PM77 °FPartly cloudy.6 mph100%29.90 "Hg10 mi
7:50 PM77 °FBroken clouds.7 mph94%29.87 "Hg10 mi
6:50 PM77 °FDrizzle. Mostly cloudy.9 mph94%29.88 "Hg4 mi
5:50 PM77 °FMostly cloudy.9 mph94%29.88 "Hg10 mi
4:50 PM82 °FMostly cloudy.8 mph89%29.85 "Hg10 mi
Weather by CustomWeather, © 2014

See weather overviewHow to use our weather pages